STARLINK-31888, 59788

Orbit data source: Space-Track

STARLINK-31888, 59788 is a payload satellite owned by SpaceX/Seattle (US) in LEO that was launched on Sat, 18 May 2024 UTC via an FALCON 9 launch vehicle from the Air Force Eastern Test Range (AFETR). Payloads include a variety of satellites, spacecraft, and rockets equipped with specific instruments for various scientific and technological missions. These include communications satellites like Starlink; space stations such as the ISS; scientific satellites like the Hubble; Earth observation satellites from companies like Planet Labs, Umbra, and HawkEye 360; GPS; miniature CubeSats for education and research; and military/defense satellites.

Loading next visibility...
STARLINK-31888 details
Identifier
59788, 2024-093G
Orbit
LEO
Last TLE update18 hours ago
Origin
Flag of USSpaceX/Seattle (US)
ManufacturerSpaceX/Seattle
MissionOperational spacecraft
Bus & MotorSTARLINK V2M, Unknown motor
Mass730 kg wet, ~700 kg dry
Launch date (UTC)
2024-05-18 (8 months ago)
Launch vehicle
FALCON 9
Launch site
Air Force Eastern Test Range (AFETR)
Object type
Payload
Rocket body
Debris
Shape & HBRUnknown
Radar Cross SectionLarge (>1 m²)

Expand to show TLE details & history

TLE from 18 hours ago
0 STARLINK-31888
1 59788U 24093G   25014.54943531  .00000622  00000-0  22185-4 0  9993
2 59788  43.0058  61.1505 0003378 282.0786  77.9692 15.40703312 38480
Epoch: 2025-01-14T13:11Z
Definitive object data (Epoch: 2025-01-14T13:11:11.21Z)
Latitude-0.00003°
Longitude109.09922°
Altitude443.328 km
Speed7.648 km/s
True Right ascension04h 04m 36s
True Declination0° 00' 00"
Sunlit
Object was in full shadow at TLE epoch
Visualization TLE readout
Latitude-23.02661°
Longitude-48.28696°
Altitude448.774 km
Speed7.644 km/s
Apparent Right ascension18h 35m 19s
Apparent Declination-32° 10' 53"
Sunlit
Object is in daylight
Visualization observer readout
Local Sidereal Time07:53:15
Azimuth69.868° E
Elevation-72.502°
Doppler factor1
Orbital elements
Apogee altitude448.293 km
Perigee altitude443.682 km
Semi-major axis6,824.125 km
Eccentricity0.0003378
Inclination43.0058°
RAAN61.1505°
Arg. of periapsis282.0786°
True anomaly78.00706°
Mean anomaly77.9692°
Eccentric anomaly77.98813°
Mean motion3.85011 °/min
BSTAR0.000022185
Orbital period93.5 mins
Loading maneuver chart data...
Loading historical data...
Loading historical data...
Loading historical data...
Loading historical data...
Loading historical data...
Loading historical data...
Loading historical data...

STARLINK-31888 Visibility forecast

Observer location: undefined°, undefined

Span
Click to sort rows by Start time (UTC) header in descending order
Start Az.
Max El. time (UTC)
Max El. Az.
Max El.
End time (UTC)
End Az.
6 mins2025-01-15 08:08:44.764Z270.373° WNW2025-01-15 08:11:44.764Z325.974° NNW39.482°2025-01-15 08:14:44.764Z67.789° E
5 mins2025-01-15 09:48:44.764Z301.209° NW2025-01-15 09:50:44.764Z36.895° NE38.001°2025-01-15 09:53:44.764Z87.219° E
5 mins2025-01-15 11:26:44.764Z271.878° WNW2025-01-15 11:28:44.764Z183.971° SSW38.156°2025-01-15 11:31:44.764Z127.964° SE
5 mins2025-01-16 05:51:44.764Z207.755° SW2025-01-16 05:53:44.764Z146.571° SSE31.302°2025-01-16 05:56:44.764Z83.42° E
|